MDT,Max TemperatureF,Mean TemperatureF,Min TemperatureF,Max Dew PointF,MeanDew PointF,Min DewpointF,Max Humidity, Mean Humidity, Min Humidity, Max Sea Level PressureIn, Mean Sea Level PressureIn, Min Sea Level PressureIn, Max VisibilityMiles, Mean VisibilityMiles, Min VisibilityMiles, Max Wind SpeedMPH, Mean Wind SpeedMPH, Max Gust SpeedMPH,PrecipitationIn, CloudCover, Events, WindDirDegrees
2013-3-1,49,33,17,34,25,13,84,69,53,30.37,30.28,30.17,15,10,10,9,3,16,0.00,4,,230
2013-3-2,53,42,30,31,27,23,75,57,38,30.25,30.10,29.90,15,11,10,6,2,,0.00,3,,204
2013-3-3,50,40,29,32,27,17,85,68,50,29.96,29.73,29.50,15,8,0,38,5,,T,6,Fog-Snow,250
2013-3-4,30,22,13,18,14,10,88,72,55,30.49,30.14,29.87,15,5,0,36,23,,0.01,6,Fog-Snow,315
2013-3-5,35,20,5,18,10,2,80,62,43,30.47,30.30,30.17,15,10,10,12,3,15,0.00,1,,20
2013-3-6,41,26,11,28,18,9,88,72,56,30.14,29.94,29.69,10,10,10,10,2,14,0.00,0,,247
2013-3-7,48,36,23,27,22,16,81,55,28,30.11,30.01,29.85,10,10,10,10,4,20,0.00,0,,203
2013-3-8,42,35,28,30,27,23,85,73,60,30.05,29.95,29.87,10,10,10,14,5,55,0.00,5,,260
2013-3-9,40,33,25,29,25,20,85,70,54,30.29,30.10,29.91,10,10,10,23,14,30,0.00,6,,313
2013-3-10,48,34,19,27,21,15,84,59,34,30.32,30.17,29.99,10,10,10,8,5,8,0.00,0,,271
2013-3-11,42,34,25,32,28,20,92,73,54,30.33,30.09,29.99,10,7,0,31,16,40,0.05,7,Fog-Snow,312
2013-3-12,42,29,15,26,20,11,84,62,40,30.42,30.29,30.14,10,10,10,15,6,26,0.00,5,,198
2013-3-13,65,46,26,31,27,22,85,55,25,30.17,30.11,30.03,15,11,10,16,3,23,0.00,2,,215
2013-3-14,65,48,31,36,30,27,76,50,24,30.20,30.09,29.96,15,11,10,10,4,14,0.00,0,,192
2013-3-15,63,50,36,31,28,23,70,46,21,30.03,29.91,29.82,10,10,10,28,8,36,0.00,3,,325
2013-3-16,54,42,30,32,29,24,92,64,36,30.02,29.92,29.75,10,10,10,14,5,17,0.00,5,,315
2013-3-17,40,30,20,31,24,13,92,65,38,29.95,29.66,29.44,10,7,0,46,19,61,0.01,6,Fog-Snow,314
2013-3-18,40,27,13,25,15,7,88,58,27,30.06,29.97,29.81,10,9,1,21,5,26,0.01,6,Snow,306
2013-3-19,35,26,16,25,21,13,92,69,45,30.40,30.21,30.04,10,7,0,20,5,23,0.05,6,Fog-Snow,330
2013-3-20,51,33,14,25,18,10,88,60,32,30.35,29.94,29.59,10,10,10,13,3,15,0.00,1,,260
2013-3-21,38,31,23,30,26,19,92,76,59,29.94,29.74,29.57,10,6,0,31,13,37,0.11,6,Fog-Snow,304
2013-3-22,37,28,19,24,17,11,84,66,47,30.22,30.01,29.89,10,10,7,30,12,36,T,5,Snow,314
2013-3-23,30,21,12,14,11,7,80,61,42,30.35,30.27,30.08,10,10,10,25,9,30,0.00,3,,305
2013-3-24,27,19,10,12,10,7,84,65,46,30.43,30.37,30.29,10,10,10,26,11,32,T,5,,327
2013-3-25,42,25,7,15,8,0,88,54,19,30.42,30.29,30.14,10,10,10,14,3,21,0.00,0,,137
2013-3-26,53,34,15,19,12,4,80,47,14,30.12,30.05,30.00,10,10,10,13,3,17,0.00,0,,320
2013-3-27,59,39,19,24,18,14,81,51,21,30.12,30.04,29.99,10,10,10,10,2,15,0.00,0,,62
2013-3-28,63,44,25,28,23,20,75,48,20,30.11,30.06,30.02,10,10,10,10,2,22,0.00,0,,61
2013-3-29,61,46,30,40,31,25,92,62,32,30.15,30.06,30.01,10,10,10,22,7,30,0.02,3,Rain,301
2013-3-30,57,44,30,37,29,20,86,57,28,30.17,30.13,30.10,10,10,10,38,13,44,0.00,4,,299
2013-3-31,62,42,22,27,23,18,85,56,27,30.19,30.09,30.02,10,10,10,29,10,38,0.00,2,,324